Location: Brno
(49.2000°N, 16.6330°E)
Time: 12:21:07
(UTC+02:00)

Meteor 1-4 Rocket - Visible Passes

Search period start: 21 August 2017 00:00
Search period end: 31 August 2017 00:00
Orbit: 454 x 508 km, 81.2° (Epoch: 20 August)

Date Brightness Start Highest point End Pass type
(mag) Time Alt. Az. Time Alt. Az. Time Alt. Az.
21 Aug 4.4 00:09:31 30° NW 00:09:31 30° NW 00:12:08 10° N visible
21 Aug 5.1 22:09:30 11° ENE 22:09:30 11° ENE 22:09:57 10° NE visible
21 Aug 4.0 23:43:47 39° NNW 23:43:47 39° NNW 23:46:28 10° N visible
22 Aug 3.7 23:18:03 43° N 23:18:03 43° N 23:20:42 10° N visible
23 Aug 3.7 22:52:18 37° NE 22:52:18 37° NE 22:54:50 10° NNE visible
24 Aug 5.4 00:26:35 14° WNW 00:26:37 14° WNW 00:28:38 10° NNW visible
24 Aug 4.0 22:26:31 29° NE 22:26:31 29° NE 22:28:51 10° NNE visible
25 Aug 5.0 00:00:48 20° WNW 00:00:48 20° WNW 00:03:27 10° NNW visible
25 Aug 4.3 22:00:43 21° ENE 22:00:43 21° ENE 22:02:44 10° NE visible
25 Aug 4.5 23:35:00 28° WNW 23:35:00 28° WNW 23:38:00 10° N visible
26 Aug 4.6 21:34:53 15° ENE 21:34:53 15° ENE 21:36:23 10° NE visible
26 Aug 3.9 23:09:10 41° NW 23:09:10 41° NW 23:12:23 10° N visible
27 Aug 4.9 21:09:01 11° ENE 21:09:01 11° ENE 21:09:24 10° ENE visible
27 Aug 3.1 22:43:18 60° NNW 22:43:18 60° NNW 22:46:39 10° N visible
28 Aug 2.7 22:17:23 67° NE 22:17:23 67° NE 22:20:49 10° NNE visible
28 Aug 5.6 23:51:40 10° WNW 23:52:41 11° WNW 23:53:59 10° NW visible
29 Aug 3.0 21:51:27 47° E 21:51:27 47° E 21:54:53 10° NNE visible
29 Aug 5.2 23:25:43 15° W 23:26:38 16° WNW 23:29:07 10° NNW visible
30 Aug 3.5 21:25:27 31° E 21:25:28 31° E 21:28:51 10° NNE visible
30 Aug 4.8 22:59:43 21° W 23:00:38 23° WNW 23:03:46 10° NNW visible
